Whiteclay, NE

11:05 AM MDT on August 25, 2016 (GMT -0600)
Pine Ridge

Weather History for KIEN - September, 2012

Change the Weather History Date:

Tuesday, September 25, 2012

  Actual Average Record
Temperature  
Mean Temperature 58 °F 57 °F  
Max Temperature 80 °F 73 °F 91 °F (2008)
Min Temperature 35 °F 40 °F 28 °F (2003)
Degree Days  
Heating Degree Days 7 9  
Month to date heating degree days 110 134  
Since 1 July heating degree days 120 171  
Cooling Degree Days 0 1  
Month to date cooling degree days 73 64  
Year to date cooling degree days 1096 712  
Growing Degree Days 8 (Base 50)    
Moisture  
Dew Point 28 °F    
Average Humidity 47    
Maximum Humidity 82    
Minimum Humidity 12    
Precipitation  
Precipitation 0.00 in 0.05 in 0.05 in (2005)
Month to date precipitation 0.53 1.39  
Year to date precipitation 9.49 15.18  
Sea Level Pressure  
Sea Level Pressure 29.93 in    
Wind  
Wind Speed 4 mph (East)    
Max Wind Speed 14 mph    
Max Gust Speed 23 mph    
Visibility 10 miles    
Events      
T = Trace of Precipitation, MM = Missing Value Source: NWS Daily Summary

Daily Weather History Graph

Daily Weather History Graph

Search for Another Location

Airport or City:

Trip Planner

Search our weather history database for the weather conditions in past years. The results will help you decide how hot, cold, wet, or windy it might be!

Date:

Astronomy

Sep. 25, 2012 Rise Set
Actual Time 6:41 AM MDT 6:41 PM MDT
Civil Twilight 6:12 AM MDT 7:09 PM MDT
Nautical Twilight 5:39 AM MDT 7:42 PM MDT
Astronomical Twilight 5:06 AM MDT 8:15 PM MDT
Moon 4:12 PM MDT 1:58 AM MDT
Length of Visible Light 12h 56m
Length of Day
11h 59m
Waxing Gibbous, 80% of the Moon is Illuminated
Sep 25
Waxing Gibbous
Sep 29
Full
Oct 8
Last Quarter
Oct 15
New
Oct 21
First Quarter

Hourly Weather History & Observations

Time (MDT) Temp. Windchill Dew Point Humidity Pressure Visibility Wind Dir Wind Speed Gust Speed Precip Events Conditions
12:52 AM 39.9 °F - 30.9 °F 70% 29.91 in 10.0 mi Calm Calm - N/A   Clear
1:52 AM 39.9 °F - 30.9 °F 70% 29.91 in 10.0 mi Calm Calm - N/A   Clear
2:52 AM 37.0 °F - 30.0 °F 76% 29.91 in 10.0 mi Calm Calm - N/A   Clear
3:52 AM 37.0 °F 33.3 °F 30.0 °F 76% 29.90 in 10.0 mi ENE 4.6 mph - N/A   Clear
4:52 AM 36.0 °F - 30.0 °F 79% 29.89 in 10.0 mi Calm Calm - N/A   Clear
5:52 AM 36.0 °F - 30.0 °F 79% 29.91 in 10.0 mi Calm Calm - N/A   Clear
6:52 AM 36.0 °F 33.3 °F 30.0 °F 79% 29.94 in 10.0 mi East 3.5 mph - N/A   Clear
7:52 AM 43.0 °F - 33.1 °F 68% 29.95 in 10.0 mi Calm Calm - N/A   Clear
8:52 AM 51.1 °F - 35.1 °F 54% 29.95 in 10.0 mi Calm Calm - N/A   Clear
9:52 AM 61.0 °F - 36.0 °F 39% 29.95 in 10.0 mi Calm Calm - N/A   Clear
10:52 AM 72.0 °F - 34.0 °F 25% 29.93 in 10.0 mi Variable 4.6 mph - N/A   Clear
11:52 AM 75.0 °F - 24.1 °F 15% 29.93 in 10.0 mi East 3.5 mph - N/A   Clear
1:52 PM 79.0 °F - 21.9 °F 12% 29.89 in 10.0 mi Variable 5.8 mph - N/A   Clear
2:52 PM 79.0 °F - 24.1 °F 13% 29.89 in 10.0 mi East 9.2 mph 17.3 mph N/A   Clear
3:52 PM 79.0 °F - 21.0 °F 12% 29.89 in 10.0 mi East 6.9 mph - N/A   Clear
4:52 PM 78.1 °F - 21.0 °F 12% 29.90 in 10.0 mi East 9.2 mph - N/A   Clear
5:52 PM 73.9 °F - 21.9 °F 14% 29.92 in 10.0 mi East 6.9 mph - N/A   Clear
6:52 PM 61.0 °F - 24.1 °F 24% 29.95 in 10.0 mi ENE 4.6 mph - N/A   Clear
8:52 PM 50.0 °F - 24.1 °F 36% 29.98 in 10.0 mi Calm Calm - N/A   Clear
9:52 PM 46.0 °F - 25.0 °F 44% 29.98 in 10.0 mi Calm Calm - N/A   Clear
10:52 PM 46.9 °F - 27.0 °F 46% 29.96 in 10.0 mi ENE 3.5 mph - N/A   Clear
11:52 PM 51.1 °F - 28.0 °F 41% 29.96 in 10.0 mi ENE 6.9 mph - N/A   Clear